Time,TemperatureF,DewpointF,PressureIn,WindDirection,WindDirectionDegrees,WindSpeedMPH,WindSpeedGustMPH,Humidity,HourlyPrecipIn,Conditions,Clouds,dailyrainin,SolarRadiationWatts/m^2,SoftwareType,DateUTC
2013-07-16 00:09:00,57.3,53.0,30.25,SW,228,2.0,6.0,85,0.00,,,0.00,0,weatherlink.com 1.10,2013-07-16 08:09:00,
2013-07-16 00:24:00,57.2,53.0,30.25,SW,228,1.0,4.0,86,0.00,,,0.00,0,weatherlink.com 1.10,2013-07-16 08:24:00,
2013-07-16 00:39:00,57.1,53.0,30.25,SW,228,0.0,4.0,85,0.00,,,0.00,0,weatherlink.com 1.10,2013-07-16 08:39:00,
2013-07-16 00:54:00,56.8,52.0,30.25,SW,228,4.0,6.0,85,0.00,,,0.00,0,weatherlink.com 1.10,2013-07-16 08:54:00,
2013-07-16 01:09:00,56.6,53.0,30.25,SW,228,4.0,5.0,86,0.00,,,0.00,0,weatherlink.com 1.10,2013-07-16 09:09:00,
2013-07-16 01:24:00,56.9,53.0,30.25,SW,228,0.0,0.0,86,0.00,,,0.00,0,weatherlink.com 1.10,2013-07-16 09:24:00,
2013-07-16 01:39:00,56.9,53.0,30.25,SW,228,0.0,1.0,86,0.00,,,0.00,0,weatherlink.com 1.10,2013-07-16 09:39:00,
2013-07-16 01:54:00,56.8,53.0,30.26,SW,228,0.0,1.0,87,0.00,,,0.00,0,weatherlink.com 1.10,2013-07-16 09:54:00,
2013-07-16 02:09:00,56.8,53.0,30.25,SW,228,0.0,1.0,86,0.00,,,0.00,0,weatherlink.com 1.10,2013-07-16 10:09:00,
2013-07-16 02:24:00,56.9,53.0,30.25,SW,228,0.0,4.0,85,0.00,,,0.00,0,weatherlink.com 1.10,2013-07-16 10:24:00,
2013-07-16 02:39:00,57.1,53.0,30.25,SW,228,0.0,1.0,85,0.00,,,0.00,0,weatherlink.com 1.10,2013-07-16 10:39:00,
2013-07-16 02:54:00,57.5,53.0,30.25,SW,228,1.0,1.0,84,0.00,,,0.00,0,weatherlink.com 1.10,2013-07-16 10:54:00,
2013-07-16 03:09:00,57.4,53.0,30.25,SW,228,0.0,2.0,84,0.00,,,0.00,0,weatherlink.com 1.10,2013-07-16 11:09:00,
2013-07-16 03:24:00,57.2,53.0,30.25,SW,228,1.0,2.0,85,0.00,,,0.00,0,weatherlink.com 1.10,2013-07-16 11:24:00,
2013-07-16 03:39:00,58.6,53.0,30.24,NNE,16,1.0,4.0,82,0.00,,,0.00,0,weatherlink.com 1.10,2013-07-16 11:39:00,
2013-07-16 03:54:00,57.5,53.0,30.23,NNE,16,2.0,4.0,84,0.00,,,0.00,0,weatherlink.com 1.10,2013-07-16 11:54:00,
2013-07-16 04:09:00,57.1,53.0,30.23,NNE,16,0.0,0.0,85,0.00,,,0.00,0,weatherlink.com 1.10,2013-07-16 12:09:00,
2013-07-16 04:24:00,57.2,53.0,30.24,NNE,16,2.0,3.0,85,0.00,,,0.00,0,weatherlink.com 1.10,2013-07-16 12:24:00,
2013-07-16 04:39:00,57.7,53.0,30.23,NNE,16,0.0,1.0,85,0.00,,,0.00,0,weatherlink.com 1.10,2013-07-16 12:39:00,
2013-07-16 04:54:00,57.4,53.0,30.23,NNE,16,0.0,0.0,84,0.00,,,0.00,0,weatherlink.com 1.10,2013-07-16 12:54:00,
2013-07-16 05:09:00,57.2,53.0,30.23,NNE,16,0.0,1.0,85,0.00,,,0.00,0,weatherlink.com 1.10,2013-07-16 13:09:00,
2013-07-16 05:24:00,57.9,53.0,30.23,NNE,16,0.0,4.0,83,0.00,,,0.00,0,weatherlink.com 1.10,2013-07-16 13:24:00,
2013-07-16 05:39:00,57.9,52.0,30.23,NNE,16,0.0,4.0,82,0.00,,,0.00,5,weatherlink.com 1.10,2013-07-16 13:39:00,
2013-07-16 05:54:00,57.4,53.0,30.23,NNE,15,5.0,6.0,85,0.00,,,0.00,5,weatherlink.com 1.10,2013-07-16 13:54:00,
2013-07-16 06:09:00,56.9,52.0,30.23,WNW,288,5.0,7.0,84,0.00,,,0.00,11,weatherlink.com 1.10,2013-07-16 14:09:00,
2013-07-16 06:24:00,56.9,53.0,30.23,West,279,6.0,6.0,86,0.00,,,0.00,14,weatherlink.com 1.10,2013-07-16 14:24:00,
2013-07-16 06:39:00,56.8,53.0,30.23,West,274,5.0,6.0,87,0.00,,,0.00,21,weatherlink.com 1.10,2013-07-16 14:39:00,
2013-07-16 06:54:00,56.6,53.0,30.23,West,274,4.0,6.0,87,0.00,,,0.00,16,weatherlink.com 1.10,2013-07-16 14:54:00,
2013-07-16 07:09:00,56.8,53.0,30.23,West,274,4.0,6.0,86,0.00,,,0.00,33,weatherlink.com 1.10,2013-07-16 15:09:00,
2013-07-16 07:24:00,56.7,53.0,30.23,West,274,4.0,6.0,86,0.00,,,0.00,49,weatherlink.com 1.10,2013-07-16 15:24:00,
2013-07-16 07:39:00,56.6,53.0,30.23,WSW,254,5.0,7.0,88,0.00,,,0.00,76,weatherlink.com 1.10,2013-07-16 15:39:00,
2013-07-16 07:54:00,56.8,53.0,30.23,WSW,258,4.0,7.0,88,0.00,,,0.00,141,weatherlink.com 1.10,2013-07-16 15:54:00,
2013-07-16 08:09:00,57.0,53.0,30.24,West,259,7.0,8.0,87,0.00,,,0.00,118,weatherlink.com 1.10,2013-07-16 16:09:00,
2013-07-16 08:24:00,56.9,53.0,30.23,WSW,249,6.0,8.0,87,0.00,,,0.00,156,weatherlink.com 1.10,2013-07-16 16:24:00,
2013-07-16 08:39:00,57.4,54.0,30.23,WSW,248,4.0,7.0,87,0.00,,,0.00,174,weatherlink.com 1.10,2013-07-16 16:39:00,
2013-07-16 08:54:00,57.7,53.0,30.23,WSW,249,7.0,7.0,85,0.00,,,0.00,220,weatherlink.com 1.10,2013-07-16 16:54:00,
2013-07-16 09:09:00,57.7,53.0,30.22,WSW,237,7.0,8.0,83,0.00,,,0.00,188,weatherlink.com 1.10,2013-07-16 17:09:00,
2013-07-16 09:24:00,57.9,52.0,30.23,WSW,247,7.0,8.0,82,0.00,,,0.00,243,weatherlink.com 1.10,2013-07-16 17:24:00,
2013-07-16 09:39:00,58.3,53.0,30.22,WSW,239,7.0,9.0,82,0.00,,,0.00,232,weatherlink.com 1.10,2013-07-16 17:39:00,
2013-07-16 09:54:00,58.7,53.0,30.22,WSW,250,4.0,8.0,81,0.00,,,0.00,397,weatherlink.com 1.10,2013-07-16 17:54:00,
2013-07-16 10:09:00,59.1,53.0,30.21,WSW,238,9.0,9.0,79,0.00,,,0.00,545,weatherlink.com 1.10,2013-07-16 18:09:00,
2013-07-16 10:24:00,59.0,53.0,30.23,West,271,9.0,11.0,81,0.00,,,0.00,374,weatherlink.com 1.10,2013-07-16 18:24:00,
2013-07-16 10:39:00,59.2,53.0,30.23,SW,229,9.0,12.0,80,0.00,,,0.00,308,weatherlink.com 1.10,2013-07-16 18:39:00,
2013-07-16 10:54:00,59.3,53.0,30.22,SW,230,9.0,11.0,80,0.00,,,0.00,392,weatherlink.com 1.10,2013-07-16 18:54:00,
2013-07-16 11:09:00,59.6,53.0,30.22,SSW,207,9.0,10.0,80,0.00,,,0.00,267,weatherlink.com 1.10,2013-07-16 19:09:00,
2013-07-16 11:24:00,59.1,53.0,30.22,SSW,212,9.0,12.0,81,0.00,,,0.00,274,weatherlink.com 1.10,2013-07-16 19:24:00,
2013-07-16 11:39:00,60.2,54.0,30.22,SW,218,6.0,10.0,80,0.00,,,0.00,582,weatherlink.com 1.10,2013-07-16 19:39:00,
2013-07-16 11:54:00,61.0,54.0,30.22,SW,217,6.0,11.0,79,0.00,,,0.00,237,weatherlink.com 1.10,2013-07-16 19:54:00,
2013-07-16 12:09:00,60.3,54.0,30.22,WSW,257,6.0,9.0,80,0.00,,,0.00,255,weatherlink.com 1.10,2013-07-16 20:09:00,
2013-07-16 12:25:00,60.9,54.0,30.21,SW,219,6.0,9.0,79,0.00,,,0.00,292,weatherlink.com 1.10,2013-07-16 20:25:00,
2013-07-16 12:40:00,61.5,55.0,30.22,SSW,202,6.0,10.0,78,0.00,,,0.00,274,weatherlink.com 1.10,2013-07-16 20:40:00,
2013-07-16 12:55:00,60.9,54.0,30.21,WSW,247,7.0,11.0,78,0.00,,,0.00,232,weatherlink.com 1.10,2013-07-16 20:55:00,
2013-07-16 13:10:00,60.7,55.0,30.22,SSW,212,3.0,10.0,80,0.00,,,0.00,267,weatherlink.com 1.10,2013-07-16 21:10:00,
2013-07-16 13:25:00,61.4,55.0,30.21,WSW,245,8.0,9.0,78,0.00,,,0.00,292,weatherlink.com 1.10,2013-07-16 21:25:00,
2013-07-16 13:40:00,61.9,55.0,30.22,WSW,240,7.0,11.0,77,0.00,,,0.00,199,weatherlink.com 1.10,2013-07-16 21:40:00,
2013-07-16 13:55:00,61.6,55.0,30.21,SW,218,6.0,10.0,79,0.00,,,0.00,181,weatherlink.com 1.10,2013-07-16 21:55:00,
2013-07-16 14:10:00,61.2,55.0,30.21,WSW,254,9.0,10.0,79,0.00,,,0.00,258,weatherlink.com 1.10,2013-07-16 22:10:00,
2013-07-16 14:25:00,61.4,55.0,30.21,SW,223,4.0,11.0,80,0.00,,,0.00,223,weatherlink.com 1.10,2013-07-16 22:25:00,
2013-07-16 14:40:00,62.2,55.0,30.20,SW,232,1.0,8.0,77,0.00,,,0.00,218,weatherlink.com 1.10,2013-07-16 22:40:00,
2013-07-16 14:55:00,63.2,55.0,30.19,WSW,252,6.0,6.0,74,0.00,,,0.00,146,weatherlink.com 1.10,2013-07-16 22:55:00,
2013-07-16 15:10:00,63.6,55.0,30.19,SW,226,2.0,9.0,74,0.00,,,0.00,207,weatherlink.com 1.10,2013-07-16 23:10:00,
2013-07-16 15:25:00,63.4,55.0,30.19,SSW,202,4.0,13.0,75,0.00,,,0.00,207,weatherlink.com 1.10,2013-07-16 23:25:00,
2013-07-16 15:40:00,63.9,55.0,30.18,WSW,241,6.0,11.0,74,0.00,,,0.00,211,weatherlink.com 1.10,2013-07-16 23:40:00,
2013-07-16 15:55:00,62.2,55.0,30.18,WSW,251,10.0,13.0,77,0.00,,,0.00,740,weatherlink.com 1.10,2013-07-16 23:55:00,
2013-07-16 16:10:00,63.6,56.0,30.18,WSW,246,6.0,14.0,76,0.00,,,0.00,682,weatherlink.com 1.10,2013-07-17 00:10:00,
2013-07-16 16:25:00,64.6,56.0,30.18,SSW,198,8.0,13.0,74,0.00,,,0.00,121,weatherlink.com 1.10,2013-07-17 00:25:00,
2013-07-16 16:40:00,64.8,56.0,30.18,WSW,238,9.0,13.0,73,0.00,,,0.00,120,weatherlink.com 1.10,2013-07-17 00:40:00,
2013-07-16 16:55:00,64.4,56.0,30.18,WSW,240,9.0,13.0,75,0.00,,,0.00,116,weatherlink.com 1.10,2013-07-17 00:55:00,
2013-07-16 17:10:00,64.9,56.0,30.17,SW,229,11.0,11.0,74,0.00,,,0.00,589,weatherlink.com 1.10,2013-07-17 01:10:00,
2013-07-16 17:25:00,65.3,57.0,30.16,WSW,237,7.0,11.0,74,0.00,,,0.00,570,weatherlink.com 1.10,2013-07-17 01:25:00,
2013-07-16 17:40:00,66.3,57.0,30.16,SSE,150,5.0,10.0,72,0.00,,,0.00,267,weatherlink.com 1.10,2013-07-17 01:40:00,
2013-07-16 17:55:00,66.0,57.0,30.16,South,183,5.0,15.0,72,0.00,,,0.00,533,weatherlink.com 1.10,2013-07-17 01:55:00,
2013-07-16 18:10:00,67.1,57.0,30.16,South,169,9.0,10.0,69,0.00,,,0.00,309,weatherlink.com 1.10,2013-07-17 02:10:00,
2013-07-16 18:25:00,66.6,56.0,30.16,SSW,197,8.0,13.0,68,0.00,,,0.00,332,weatherlink.com 1.10,2013-07-17 02:25:00,
2013-07-16 18:40:00,66.1,56.0,30.16,SE,143,1.0,11.0,70,0.00,,,0.00,243,weatherlink.com 1.10,2013-07-17 02:40:00,
2013-07-16 18:55:00,66.0,55.0,30.15,ESE,115,1.0,10.0,68,0.00,,,0.00,178,weatherlink.com 1.10,2013-07-17 02:55:00,
2013-07-16 19:10:00,65.7,56.0,30.15,South,182,1.0,9.0,71,0.00,,,0.00,130,weatherlink.com 1.10,2013-07-17 03:10:00,
2013-07-16 19:25:00,65.2,56.0,30.15,SE,129,1.0,7.0,72,0.00,,,0.00,155,weatherlink.com 1.10,2013-07-17 03:25:00,
2013-07-16 19:40:00,65.8,56.0,30.15,ESE,104,1.0,8.0,71,0.00,,,0.00,427,weatherlink.com 1.10,2013-07-17 03:40:00,
2013-07-16 19:55:00,65.7,55.0,30.15,SSE,161,5.0,7.0,69,0.00,,,0.00,95,weatherlink.com 1.10,2013-07-17 03:55:00,
2013-07-16 20:10:00,64.6,55.0,30.15,SW,215,6.0,9.0,72,0.00,,,0.00,69,weatherlink.com 1.10,2013-07-17 04:10:00,
2013-07-16 20:25:00,64.6,56.0,30.15,SSW,194,6.0,9.0,73,0.00,,,0.00,51,weatherlink.com 1.10,2013-07-17 04:25:00,
2013-07-16 20:40:00,64.6,54.0,30.14,SE,134,0.0,8.0,69,0.00,,,0.00,37,weatherlink.com 1.10,2013-07-17 04:40:00,
2013-07-16 20:55:00,65.0,55.0,30.14,SE,125,1.0,5.0,69,0.00,,,0.00,30,weatherlink.com 1.10,2013-07-17 04:55:00,
2013-07-16 21:10:00,65.2,54.0,30.14,ESE,119,2.0,4.0,68,0.00,,,0.00,16,weatherlink.com 1.10,2013-07-17 05:10:00,
2013-07-16 21:25:00,64.6,54.0,30.14,SE,134,1.0,5.0,69,0.00,,,0.00,23,weatherlink.com 1.10,2013-07-17 05:25:00,
2013-07-16 21:40:00,64.7,55.0,30.14,SE,138,3.0,6.0,71,0.00,,,0.00,14,weatherlink.com 1.10,2013-07-17 05:40:00,
2013-07-16 21:55:00,64.4,55.0,30.14,SE,138,3.0,5.0,71,0.00,,,0.00,11,weatherlink.com 1.10,2013-07-17 05:55:00,
2013-07-16 22:10:00,64.1,55.0,30.14,SSE,147,2.0,6.0,73,0.00,,,0.00,9,weatherlink.com 1.10,2013-07-17 06:10:00,
2013-07-16 22:25:00,63.6,56.0,30.14,SSE,163,4.0,5.0,76,0.00,,,0.00,5,weatherlink.com 1.10,2013-07-17 06:25:00,
2013-07-16 22:40:00,63.8,56.0,30.14,SSE,167,1.0,5.0,76,0.00,,,0.00,0,weatherlink.com 1.10,2013-07-17 06:40:00,
2013-07-16 22:55:00,63.7,56.0,30.14,SSE,167,0.0,2.0,76,0.00,,,0.00,0,weatherlink.com 1.10,2013-07-17 06:55:00,
2013-07-16 23:10:00,63.8,56.0,30.14,South,171,2.0,3.0,76,0.00,,,0.00,0,weatherlink.com 1.10,2013-07-17 07:10:00,
2013-07-16 23:26:00,62.9,56.0,30.14,SW,220,1.0,6.0,78,0.00,,,0.00,0,weatherlink.com 1.10,2013-07-17 07:26:00,
2013-07-16 23:41:00,62.4,56.0,30.15,SSW,213,4.0,4.0,80,0.00,,,0.00,0,weatherlink.com 1.10,2013-07-17 07:41:00,
2013-07-16 23:56:00,62.3,56.0,30.14,SSW,207,5.0,5.0,81,0.00,,,0.00,0,weatherlink.com 1.10,2013-07-17 07:56:00,